Timeline UpdatesTrip UpdatesNews PostsPvt PostsTravel TipsAdmin PostsConv PostsFollowed PostsChat RequestsBlog PostsPNR Posts

Disclaimer
Search
 
 
Thu Apr 24, 2014 01:35:43 ISTHomeTrainsΣChainsAtlasPNRForumGalleryNewsFAQTripsMembersLoginFeedback
No Recent News for this Train
Other Trains in the News **new
Latest...
One Sleeper and unreserved coach for Nandurbar from 59441 Mumbai Ahmedabad passenger is attached to this train at Surat.
Fri Feb 04, 2011 (12:38PM)
⇐ Return Journey: Train# 59076

59075/Surat - Bhusaval Passenger

Feb 23 2014 (12:44AM)
Change Departure Station:
Change Arrival Station:
Post a Train Travel TipPost a Train Travel Tip **new
Post a Comment/Question/Picture/VideoPost a Comment/Question/Picture/Video
Pantry/Catering
✕ NO Pantry Car
✓ Catering Avbl
RSA - Rake Sharing
Rake/Coach Composition
Loco
BSL WAM4.
News    PNR    Forum    Time-Table    Availability    Fare Chart    Map    Arr/Dep History    Trips    Gallery    ΣChains    X/O    Timeline    
Travel Time: 11h 29m    41 halts    Distance: 319 km    Avg Speed: 27 km/hr
Type: Passenger
Zone: WR/Western
Departs @ 07:51 (Avg 19m late)
Platform# 1
SMTWTFS
Chalthan/CHM 
Arrives @ 19:20 (Avg 20m late)
Platform# 1
SMTWTFS
Bhusaval Junction/BSL 

41 halts. 43 intermediate Stations between Chalthan and Bhusaval Junction

Show ALL intermediate Stations  Show Old Time-Table

#CodeStation NameX/OArrivesAvgDepartsAvgHaltPFDay#KmSpeedElevZoneAddress
1STSurat (4)  -07:20+341-15.53019mWRSurat 395001, Gujarat
2UDNUdhna Junction (3)O  07:28+907:30+142m31-11.53516mWRUdhna 394210, Gujarat
3NOLNiyol (1)  07:41+1507:43+152m11-5.05018mWRSurat, Gujarat
4CHM»Chalthan (1)»O  07:49+1507:51+192m110.03823mWRKadodra, Gujarat
5BGMRBagumra (1)  07:58+1907:59+191m--14.45122mWRNational Highway 6, Gujarat
6GGARGangadhara (1)X  08:05+1908:07+212m119.52727mWRKareli, Gujarat
7BIYBardoli (2)X  08:21+1808:23+212m--115.75135mWRNear Bardoli Sugar Factory Bardoli, Gujarat
8TBVTimbarva (1)  08:31+2408:33+272m1122.54135mWRTimberva, Gujarat
9MGRLMangrolla (1)O  08:37+3008:39+292m1125.24636mWRPipariya, Gujarat
10MIDMadhi (1)  08:46+2808:48+302m1130.53645mWRMadhi, Gujarat
11KRAIKaher (1)O  08:57+2908:59+292m1135.94655mWRKaher, Gujarat
12LTVLotarva (1)  09:03+3009:05+292m1139.02657mWRSankr Main Rd, Gujarat
13VYAVyara (2)  09:20+2609:22+272m2145.54990mWRVyara, Gujarat
14KKRDKikakui Road (1)  09:36+2709:38+272m1157.038114mWRGujarat 394650 ?, Gujarat
15DSDDosvada (1)  09:42+2809:44+272m1159.646121mWRNational Highway 6, Gujarat
16USDUkai Songadh (2)XO  09:50+2709:52+282m1164.262139mWRSongadh, Gujarat
17LKKDLakkad Kot (1)  09:59+3210:01+332m1171.437122mWRGujarat 394375 ?, Gujarat
18BBAIBhadbhunja (1)XO  10:09+3310:11+332m1176.333126mWRGujarat 394375 ?, Gujarat
19NWUNavapur (2)  10:31+2710:33+332m--187.457124mWRNavapur, Gujarat
20KFFKolda (1)O  10:44+3410:46+332m1197.848160mWRGangapur, Maharashtra
21CPDChinchpada (1)O  10:54+3510:56+382m11104.159178mWRGangapur, Maharashtra
22KHTGKhatgaon (1)O  11:06+4011:08+422m11113.928178mWRState Highway 5, Maharashtra
23KBHKhandbara (1)  11:27+3711:29+482m11122.716198mWRKhandbara, Maharashtra
24DWDDhekwad (1)  12:20+2312:22+262m11136.324209mWRState Highway 5, Maharashtra
25NDBNandurbar (3)XO  12:45+1614:10+2285m--1145.334203mWRNandurbar, Maharashtra
26CUEChoupale (1)  14:19+2414:21+272m11150.552208mWRNehru Nagar, Maharashtra
27TISITisi (1)  14:30+2714:32+302m11158.244185mWRState Highway 7, Maharashtra
28RNLRanala (1)X  14:45+2614:47+352m11167.755164mWRState Highway 6, Maharashtra
29DDEDondaicha (2)X  15:00+3315:02+382m11179.738163mWRDondaicha, Maharashtra
30VKHVikhran (1)  15:15+3615:17+382m11187.941176mWRMSH1, Maharashtra
31SNSLSonshelu (1)  15:24+3315:26+322m11192.732185mWRMSH1, Maharashtra
32SNKSindkheda (1)  15:38+3215:40+332m11199.150178mWRState Highway 11, Maharashtra
33HOLHol (1)X  15:50+3315:52+332m11207.425185mWRState Highway 6, Maharashtra
34NDNNardana (1)  16:04+3016:06+302m11212.451184mWRNardana, Maharashtra
35BEWBetavad (1)  16:14+3116:16+302m11219.156178mWRState Highway 6, Maharashtra
36PDPPadse  16:22+2916:24+292m--1224.736181mWRDhule, Maharashtra
37BRTKBhortexX  16:37+2516:39+262m--1232.615180mWRVadhoda, Maharashtra
38ANAmalner (1)X  17:12+1417:15+153m11240.762188mWRAmalner, Maharashtra
39TKHETakarkhede (1)  17:26+1617:28+162m11252.144203mWRState Highway 6, Maharashtra
40BHNEBhone (2)X  17:36+1617:38+162m--1258.051196mWRState Highway 185, Maharashtra
41DXGDharangaon  17:47+1717:49+172m--1265.648217mWRDharangaon, Maharashtra
42CHLKChavalkhedeX  17:58+1718:00+242m--1272.749196mWRState Highway 185, Maharashtra
43PLDPaldhi (2)  18:14+2318:16+262m--1284.225208mWRPaldhi, Maharashtra
44JLJalgaon Junction (4)  18:43+1118:45+152m41295.346213mCRJalgaon 425001, Maharashtra
45BDIBhadli (2)  19:00+2919:02+302m--1306.842211mCRBhadli, Maharashtra
46BSL•Bhusaval Junction (8)•  19:20+20-11319.4-208mCRBhusaval 425201, Maharashtra
Scroll to Top
Scroll to Bottom